When you browse on this site, cookies collect data to enhance your experience and personalize the content and advertising you see.
Visit our Privacy Policy to learn more. By continuing to use the site, you agree to this use of cookies and data.
  • In Romania
  • List of Countries
  • For 7 days
  • Water Temperature
  • Satellite Maps
  • Weather Map
  • Weather Widgets
  • user-avatar
    Login

    Hourly Weather Córdoba

    Today, 16 January, Wednesday

    Time Temperature Precipitation Wind Pressure Humidity
    00:00 +23°C° 0 mm 1 mps 722 mmHg 65%
    01:00 +23°C° 0 mm 1 mps 722 mmHg 67%
    02:00 +23°C° 0 mm 1 mps 722 mmHg 68%
    03:00 +22°C° 0 mm 1 mps 722 mmHg 69%
    04:00 +22°C° 0 mm 1 mps 721 mmHg 70%
    05:00 +22°C° 0 mm 1 mps 721 mmHg 71%
    06:00 +24°C° 0 mm 1 mps 722 mmHg 65%
    07:00 +25°C° 0 mm 1 mps 722 mmHg 59%
    08:00 +27°C° 0 mm 2 mps 722 mmHg 53%
    09:00 +29°C° 0 mm 2 mps 722 mmHg 48%
    10:00 +31°C° 0 mm 3 mps 722 mmHg 43%
    11:00 +34°C° 0 mm 4 mps 722 mmHg 37%
    12:00 +35°C° 0 mm 4 mps 722 mmHg 36%
    13:00 +36°C° 0 mm 5 mps 721 mmHg 34%
    14:00 +37°C° 0 mm 5 mps 721 mmHg 32%
    15:00 +36°C° 0 mm 5 mps 720 mmHg 34%
    16:00 +36°C° 0 mm 6 mps 720 mmHg 36%
    17:00 +35°C° 0 mm 6 mps 719 mmHg 38%
    18:00 +33°C° 0 mm 5 mps 720 mmHg 44%
    19:00 +30°C° 0 mm 4 mps 720 mmHg 49%
    20:00 +28°C° 0 mm 4 mps 720 mmHg 55%
    21:00 +27°C° 0 mm 3 mps 721 mmHg 58%
    22:00 +26°C° 0 mm 2 mps 721 mmHg 61%
    23:00 +25°C° 0 mm 2 mps 721 mmHg 64%

    Tomorrow, 17 January, Thursday

    Time Temperature Precipitation Wind Pressure Humidity
    00:00 +25°C° 0 mm 1 mps 721 mmHg 68%
    01:00 +24°C° 0 mm 1 mps 721 mmHg 73%
    02:00 +24°C° 0 mm 1 mps 720 mmHg 77%
    03:00 +24°C° 0 mm 1 mps 721 mmHg 77%
    04:00 +23°C° 0 mm 1 mps 721 mmHg 76%
    05:00 +23°C° 0 mm 1 mps 721 mmHg 75%
    06:00 +22°C° 0.1 mm 3 mps 722 mmHg 78%
    07:00 +21°C° 0.1 mm 5 mps 722 mmHg 81%
    08:00 +21°C° 0.1 mm 7 mps 723 mmHg 84%
    09:00 +20°C° 0.5 mm 7 mps 724 mmHg 85%
    10:00 +19°C° 0.5 mm 6 mps 724 mmHg 85%
    11:00 +17°C° 0.5 mm 6 mps 724 mmHg 86%
    12:00 +16°C° 0.4 mm 6 mps 724 mmHg 87%
    13:00 +16°C° 0.4 mm 7 mps 724 mmHg 87%
    14:00 +15°C° 0.4 mm 7 mps 725 mmHg 88%
    15:00 +15°C° 0.2 mm 7 mps 725 mmHg 87%
    16:00 +15°C° 0.2 mm 8 mps 725 mmHg 86%
    17:00 +15°C° 0.2 mm 8 mps 725 mmHg 86%
    18:00 +14°C° 0.5 mm 7 mps 726 mmHg 86%
    19:00 +14°C° 0.5 mm 7 mps 726 mmHg 86%
    20:00 +12°C° 0.5 mm 7 mps 727 mmHg 86%
    21:00 +13°C° 0.5 mm 6 mps 727 mmHg 86%
    22:00 +13°C° 0.5 mm 6 mps 728 mmHg 86%
    23:00 +13°C° 0.5 mm 5 mps 728 mmHg 87%

    Day after tomorrow, 18 January, Friday

    Time Temperature Precipitation Wind Pressure Humidity
    00:00 +13°C° 0 mm 5 mps 728 mmHg 86%
    01:00 +13°C° 0 mm 5 mps 727 mmHg 85%
    02:00 +13°C° 0 mm 4 mps 727 mmHg 84%
    03:00 +13°C° 0 mm 4 mps 727 mmHg 84%
    04:00 +13°C° 0 mm 4 mps 727 mmHg 84%
    05:00 +13°C° 0 mm 4 mps 727 mmHg 84%
    06:00 +13°C° 0.1 mm 4 mps 727 mmHg 84%
    07:00 +14°C° 0.1 mm 4 mps 727 mmHg 84%
    08:00 +14°C° 0.1 mm 4 mps 728 mmHg 84%
    09:00 +15°C° 0 mm 4 mps 728 mmHg 79%
    10:00 +18°C° 0 mm 4 mps 728 mmHg 74%
    11:00 +19°C° 0 mm 4 mps 728 mmHg 70%
    12:00 +20°C° 0 mm 4 mps 727 mmHg 67%
    13:00 +21°C° 0 mm 4 mps 727 mmHg 64%
    14:00 +22°C° 0 mm 4 mps 726 mmHg 62%
    15:00 +23°C° 0 mm 4 mps 726 mmHg 60%
    16:00 +23°C° 0 mm 4 mps 725 mmHg 59%
    17:00 +25°C° 0 mm 3 mps 725 mmHg 58%
    18:00 +22°C° 0 mm 3 mps 725 mmHg 65%
    19:00 +20°C° 0 mm 2 mps 725 mmHg 73%
    20:00 +20°C° 0 mm 1 mps 725 mmHg 81%
    21:00 +19°C° 0 mm 1 mps 726 mmHg 82%
    22:00 +19°C° 0 mm 1 mps 726 mmHg 83%
    23:00 +19°C° 0 mm 1 mps 727 mmHg 84%

    19 January, Saturday

    Time Temperature Precipitation Wind Pressure Humidity
    00:00 +18°C° 0 mm 1 mps 726 mmHg 85%
    01:00 +18°C° 0 mm 1 mps 726 mmHg 87%
    02:00 +18°C° 0 mm 1 mps 726 mmHg 88%
    03:00 +16°C° 0 mm 1 mps 726 mmHg 88%
    04:00 +16°C° 0 mm 1 mps 726 mmHg 88%
    05:00 +16°C° 0 mm 1 mps 726 mmHg 89%
    06:00 +19°C° 0 mm 1 mps 726 mmHg 82%
    07:00 +21°C° 0 mm 1 mps 726 mmHg 74%
    08:00 +22°C° 0 mm 1 mps 727 mmHg 67%
    09:00 +24°C° 0 mm 1 mps 727 mmHg 61%
    10:00 +26°C° 0 mm 2 mps 727 mmHg 56%
    11:00 +28°C° 0 mm 3 mps 726 mmHg 50%
    12:00 +29°C° 0 mm 3 mps 726 mmHg 47%
    13:00 +30°C° 0 mm 4 mps 725 mmHg 44%
    14:00 +32°C° 0 mm 4 mps 725 mmHg 42%
    15:00 +30°C° 0 mm 5 mps 724 mmHg 45%
    16:00 +30°C° 0 mm 5 mps 724 mmHg 48%
    17:00 +29°C° 0 mm 5 mps 724 mmHg 51%
    18:00 +27°C° 0 mm 4 mps 724 mmHg 57%
    19:00 +25°C° 0 mm 4 mps 724 mmHg 64%
    20:00 +24°C° 0 mm 3 mps 724 mmHg 70%
    21:00 +22°C° 0 mm 3 mps 724 mmHg 74%
    22:00 +21°C° 0 mm 2 mps 725 mmHg 78%
    23:00 +20°C° 0 mm 2 mps 725 mmHg 82%

    20 January, Sunday

    Time Temperature Precipitation Wind Pressure Humidity
    00:00 +20°C° 0 mm 2 mps 725 mmHg 85%
    01:00 +20°C° 0 mm 2 mps 725 mmHg 88%
    02:00 +19°C° 0 mm 2 mps 724 mmHg 91%
    03:00 +19°C° 0 mm 2 mps 724 mmHg 91%
    04:00 +19°C° 0 mm 2 mps 724 mmHg 91%
    05:00 +20°C° 0 mm 1 mps 724 mmHg 92%
    06:00 +20°C° 0 mm 2 mps 724 mmHg 87%
    07:00 +21°C° 0 mm 2 mps 724 mmHg 81%
    08:00 +22°C° 0 mm 3 mps 725 mmHg 76%
    09:00 +25°C° 0 mm 3 mps 724 mmHg 67%
    10:00 +27°C° 0 mm 3 mps 724 mmHg 58%
    11:00 +29°C° 0 mm 4 mps 724 mmHg 49%
    12:00 +30°C° 0 mm 4 mps 723 mmHg 46%
    13:00 +32°C° 0 mm 5 mps 723 mmHg 43%
    14:00 +33°C° 0 mm 5 mps 722 mmHg 40%
    15:00 +33°C° 0 mm 6 mps 722 mmHg 41%
    16:00 +32°C° 0 mm 6 mps 721 mmHg 42%
    17:00 +32°C° 0 mm 6 mps 720 mmHg 44%
    18:00 +29°C° 0 mm 5 mps 721 mmHg 52%
    19:00 +27°C° 0 mm 4 mps 721 mmHg 61%
    20:00 +25°C° 0 mm 3 mps 721 mmHg 69%
    21:00 +24°C° 0 mm 3 mps 721 mmHg 73%
    22:00 +22°C° 0 mm 3 mps 722 mmHg 78%
    23:00 +21°C° 0 mm 2 mps 722 mmHg 82%

    21 January, Monday

    Time Temperature Precipitation Wind Pressure Humidity
    00:00 +21°C° 0 mm 2 mps 722 mmHg 84%
    01:00 +21°C° 0 mm 2 mps 721 mmHg 86%
    02:00 +20°C° 0 mm 2 mps 721 mmHg 88%
    03:00 +20°C° 0 mm 2 mps 721 mmHg 88%
    04:00 +21°C° 0 mm 1 mps 720 mmHg 89%
    05:00 +21°C° 0 mm 1 mps 720 mmHg 90%
    06:00 +21°C° 0 mm 2 mps 721 mmHg 83%
    07:00 +24°C° 0 mm 3 mps 721 mmHg 76%
    08:00 +26°C° 0 mm 3 mps 722 mmHg 70%
    09:00 +28°C° 0 mm 4 mps 722 mmHg 64%
    10:00 +30°C° 0 mm 4 mps 721 mmHg 59%
    11:00 +33°C° 0 mm 5 mps 721 mmHg 53%
    12:00 +34°C° 0 mm 5 mps 721 mmHg 50%
    13:00 +35°C° 0 mm 5 mps 721 mmHg 47%
    14:00 +36°C° 0 mm 5 mps 720 mmHg 44%
    15:00 +36°C° 0 mm 5 mps 720 mmHg 46%
    16:00 +35°C° 0 mm 5 mps 720 mmHg 47%
    17:00 +35°C° 0 mm 5 mps 719 mmHg 49%
    18:00 +33°C° 0 mm 5 mps 720 mmHg 56%
    19:00 +30°C° 0 mm 4 mps 720 mmHg 62%
    20:00 +28°C° 0 mm 3 mps 720 mmHg 69%
    21:00 +28°C° 0 mm 3 mps 720 mmHg 72%
    22:00 +27°C° 0 mm 3 mps 721 mmHg 75%
    23:00 +26°C° 0 mm 2 mps 721 mmHg 78%
    Show more